Вернуться в каталог

USA 121

АктивенВоенныеLEO
NORAD 23908·PAYLOAD·🇺🇸 United States

Запущен May 12, 1996 с Vandenberg Space Force Base

Loading…

Ближайшие Пролёты (ближайшие 24 часа)

TLE

СвежийSource: Space-Track

Эпоха: Sep 14, 2026, 13:25 UTC

1 23908U 96029C   26257.55956509  .00000593  00000-0  11213-3 0  9992
2 23908  63.3183 317.6173 0855922  50.9063 316.4972 13.46493324115402

Отслеживайте USA 121 в реальном времени с AllMySat

Download on the App Store